STARLINK-30774, 58625

Orbit data source: Space-Track

STARLINK-30774, 58625 is a payload satellite owned by SpaceX/Seattle (US) in LEO that was launched on Sat, 23 Dec 2023 UTC via an FALCON 9 launch vehicle from the Air Force Eastern Test Range (AFETR). Payload-class satellites include a variety of spacecraft equipped with specific instruments for various scientific and technological missions. These include communications satellites like Starlink; space stations such as the ISS; scientific satellites like the Hubble; Earth observation satellites from companies like Planet Labs, Umbra, and HawkEye 360; GPS; miniature CubeSats for education and research; and military/defense satellites.

Loading next visibility...
Identifier
58625, 2023-203H
Orbit
LEO
Country
Flag of USUS
Related business
Manufacturer
SpaceX/Seattle
Mission
Operational Commercial Communications
Bus & Motor
STARLINK V2M, Unknown motor
Mass
730 kg wet, ~700 kg dry
Launch date (UTC)
2023-12-23 (2 years ago)
Launch vehicle
FALCON 9
Launch site
Air Force Eastern Test Range (AFETR)
Object type
Payload
Rocket body
Debris
Shape & HBR
Box + 2 Pan, 17.7 m
Radar Cross Section
33.884 m², Large (>1 m²)

Expand to show TLE details & history
Last TLE update: 2 days ago

TLE from 2 days ago
0 STARLINK-30774
1 58625U 23203H   26171.16177629  .00001095  00000-0  49321-4 0  9990
2 58625  43.0041 208.3471 0002308 288.4870  71.5731 15.27578809139239
Epoch: 2026-06-20T03:52Z
TLE epoch observation values (Epoch: 2026-06-20T03:52:57.471Z)
Latitude
-0°
Longitude
-118.27273°
Altitude
482.328 km
Speed
7.626 km/s
True Right ascension
13h 53m 23s
True Declination
0° 00' 00"
Sunlit
Object was in full shadow at epoch
Visualization orbit readout
Latitude
Unknown
Longitude
Unknown
Altitude
Unknown
Speed
Unknown
Apparent Right ascension
Unknown
Apparent Declination
Unknown
Sunlit
N/A
Visualization observer readout
Local Sidereal Time
21:30:25
Azimuth
Unknown
Elevation
Unknown
Doppler factor
Unknown
Orbital elements
Apogee altitude
486.581 km
Perigee altitude
483.413 km
Semi-major axis
6,863.134 km
Eccentricity
0.00023
Inclination
43.0041°
RAAN
208.3471°
Arg. of periapsis
288.487°
True anomaly
71.59819°
Mean anomaly
71.5731°
Eccentric anomaly
71.58565°
Mean motion
3.81733 °/min
Orbital period
94.31 mins
BSTAR
0.000049321
Loading maneuver chart data...
Computing Atmospheric mass density...
Loading historical data...
Loading historical data...
Loading historical data...
Loading historical data...
Loading historical data...
Loading historical data...
Loading historical data...

Documentation

Showing up to 5 results
|